TimeCDT,TemperatureF,Dew PointF,Humidity,Sea Level PressureIn,VisibilityMPH,Wind Direction,Wind SpeedMPH,Gust SpeedMPH,PrecipitationIn,Events,Conditions,WindDirDegrees,DateUTC
12:10 AM,39.4,26.6,60,30.14,10.0,Calm,Calm,-,N/A,,Overcast,0,2012-11-03 05:10:00
12:30 AM,39.2,26.8,61,30.14,10.0,Calm,Calm,-,N/A,,Overcast,0,2012-11-03 05:30:00
12:50 AM,39.9,25.3,56,30.14,10.0,Calm,Calm,-,N/A,,Overcast,0,2012-11-03 05:50:00
1:10 AM,39.6,25.9,58,30.15,10.0,Calm,Calm,-,N/A,,Overcast,0,2012-11-03 06:10:00
1:30 AM,39.4,25.9,58,30.15,10.0,Calm,Calm,-,N/A,,Overcast,0,2012-11-03 06:30:00
1:50 AM,40.1,25.2,55,30.14,10.0,Calm,Calm,-,N/A,,Overcast,0,2012-11-03 06:50:00
2:10 AM,40.1,25.3,56,30.14,10.0,Calm,Calm,-,N/A,,Overcast,0,2012-11-03 07:10:00
2:30 AM,39.7,25.2,56,30.14,10.0,Calm,Calm,-,N/A,,Overcast,0,2012-11-03 07:30:00
2:50 AM,40.1,25.5,56,30.14,10.0,Calm,Calm,-,N/A,,Overcast,0,2012-11-03 07:50:00
3:10 AM,39.4,27.3,62,30.14,10.0,Calm,Calm,-,N/A,,Overcast,0,2012-11-03 08:10:00
3:30 AM,39.4,25.7,58,30.14,10.0,Calm,Calm,-,N/A,,Overcast,0,2012-11-03 08:30:00
3:50 AM,39.6,25.5,57,30.14,10.0,East,3.5,-,N/A,,Overcast,90,2012-11-03 08:50:00
4:10 AM,39.4,25.9,58,30.14,10.0,Calm,Calm,-,N/A,,Overcast,0,2012-11-03 09:10:00
4:50 AM,39.2,26.2,60,30.14,10.0,East,3.5,-,N/A,,Overcast,90,2012-11-03 09:50:00
5:10 AM,39.4,26.4,60,30.14,10.0,East,3.5,-,N/A,,Overcast,80,2012-11-03 10:10:00
5:30 AM,39.2,27.0,62,30.15,10.0,Calm,Calm,-,N/A,,Overcast,0,2012-11-03 10:30:00
5:50 AM,39.6,26.2,59,30.15,10.0,ESE,3.5,-,N/A,,Overcast,120,2012-11-03 10:50:00
6:10 AM,39.2,26.8,61,30.16,10.0,Calm,Calm,-,N/A,,Overcast,0,2012-11-03 11:10:00
6:29 AM,38.5,27.9,66,30.16,10.0,Calm,Calm,-,N/A,,Overcast,0,2012-11-03 11:29:00
6:50 AM,39.4,26.6,60,30.16,10.0,Calm,Calm,-,N/A,,Overcast,0,2012-11-03 11:50:00
7:10 AM,39.4,26.2,59,30.17,10.0,Calm,Calm,-,N/A,,Overcast,0,2012-11-03 12:10:00
7:30 AM,38.8,27.5,64,30.17,10.0,Calm,Calm,-,N/A,,Overcast,0,2012-11-03 12:30:00
7:50 AM,39.4,27.0,61,30.18,10.0,SE,3.5,-,N/A,,Overcast,130,2012-11-03 12:50:00
8:10 AM,39.2,27.0,62,30.18,10.0,Calm,Calm,-,N/A,,Overcast,0,2012-11-03 13:10:00
8:30 AM,39.6,27.3,62,30.19,10.0,Calm,Calm,-,N/A,,Overcast,0,2012-11-03 13:30:00
8:50 AM,39.9,27.1,60,30.20,10.0,Calm,Calm,-,N/A,,Overcast,0,2012-11-03 13:50:00
9:10 AM,40.1,27.1,60,30.20,10.0,Calm,Calm,-,N/A,,Overcast,0,2012-11-03 14:10:00
9:30 AM,40.5,26.8,58,30.21,10.0,Calm,Calm,-,N/A,,Overcast,0,2012-11-03 14:30:00
9:50 AM,41.0,27.1,58,30.21,10.0,Calm,Calm,-,N/A,,Overcast,0,2012-11-03 14:50:00
10:10 AM,41.2,27.0,57,30.21,10.0,Calm,Calm,-,N/A,,Overcast,0,2012-11-03 15:10:00
10:29 AM,41.4,28.0,59,30.21,10.0,SE,4.6,-,N/A,,Overcast,140,2012-11-03 15:29:00
10:50 AM,42.1,28.4,58,30.21,10.0,SE,5.8,-,N/A,,Overcast,130,2012-11-03 15:50:00
11:10 AM,43.0,28.9,58,30.21,10.0,SE,3.5,-,N/A,,Overcast,140,2012-11-03 16:10:00
11:30 AM,43.7,28.4,55,30.21,10.0,SSE,6.9,-,N/A,,Overcast,150,2012-11-03 16:30:00
11:50 AM,43.9,28.4,55,30.21,10.0,SSE,4.6,-,N/A,,Overcast,150,2012-11-03 16:50:00
12:10 PM,44.8,28.9,54,30.20,10.0,South,4.6,-,N/A,,Overcast,170,2012-11-03 17:10:00
12:30 PM,45.9,28.4,51,30.20,10.0,South,4.6,-,N/A,,Overcast,180,2012-11-03 17:30:00
12:50 PM,46.2,28.4,50,30.20,10.0,Calm,Calm,-,N/A,,Overcast,0,2012-11-03 17:50:00
1:10 PM,46.2,28.2,50,30.20,10.0,South,5.8,-,N/A,,Overcast,180,2012-11-03 18:10:00
1:30 PM,46.4,27.7,48,30.19,10.0,SE,4.6,-,N/A,,Overcast,130,2012-11-03 18:30:00
1:50 PM,46.2,27.7,48,30.19,10.0,SE,3.5,-,N/A,,Overcast,140,2012-11-03 18:50:00
2:10 PM,46.4,27.3,47,30.19,10.0,Calm,Calm,-,N/A,,Overcast,0,2012-11-03 19:10:00
2:30 PM,45.9,27.5,49,30.19,10.0,Calm,Calm,-,N/A,,Overcast,0,2012-11-03 19:30:00
2:49 PM,46.4,28.4,50,30.19,10.0,Calm,Calm,-,N/A,,Overcast,0,2012-11-03 19:49:00
3:10 PM,46.8,28.0,48,30.19,10.0,Calm,Calm,-,N/A,,Overcast,0,2012-11-03 20:10:00
3:30 PM,46.8,28.6,49,30.19,10.0,Calm,Calm,-,N/A,,Overcast,0,2012-11-03 20:30:00
3:50 PM,46.9,28.0,48,30.19,10.0,SSE,3.5,-,N/A,,Overcast,160,2012-11-03 20:50:00
4:10 PM,46.8,28.0,48,30.18,10.0,SE,3.5,-,N/A,,Overcast,140,2012-11-03 21:10:00
4:30 PM,46.8,27.9,48,30.18,10.0,Calm,Calm,-,N/A,,Overcast,0,2012-11-03 21:30:00
4:50 PM,46.6,28.4,49,30.19,10.0,Calm,Calm,-,N/A,,Overcast,0,2012-11-03 21:50:00
5:10 PM,46.4,28.0,49,30.19,10.0,Calm,Calm,-,N/A,,Overcast,0,2012-11-03 22:10:00
5:30 PM,46.2,28.8,51,30.19,10.0,Calm,Calm,-,N/A,,Overcast,0,2012-11-03 22:30:00
5:50 PM,45.7,28.9,52,30.18,10.0,East,4.6,-,N/A,,Overcast,100,2012-11-03 22:50:00
6:10 PM,45.1,28.9,53,30.18,10.0,East,4.6,-,N/A,,Overcast,90,2012-11-03 23:10:00
6:30 PM,44.6,28.4,53,30.19,10.0,East,3.5,-,N/A,,Overcast,100,2012-11-03 23:30:00
6:50 PM,44.2,28.2,53,30.19,10.0,East,3.5,-,N/A,,Overcast,100,2012-11-03 23:50:00
7:10 PM,44.1,28.4,54,30.19,10.0,SE,3.5,-,N/A,,Overcast,130,2012-11-04 00:10:00
7:30 PM,43.9,28.4,55,30.20,10.0,SE,3.5,-,N/A,,Overcast,130,2012-11-04 00:30:00
7:50 PM,43.3,28.6,56,30.20,10.0,SE,3.5,-,N/A,,Overcast,130,2012-11-04 00:50:00
8:10 PM,43.3,28.8,56,30.20,10.0,ESE,4.6,-,N/A,,Overcast,120,2012-11-04 01:10:00
8:30 PM,42.3,28.8,59,30.20,10.0,SE,3.5,-,N/A,,Mostly Cloudy,130,2012-11-04 01:30:00
8:50 PM,43.0,28.9,58,30.19,10.0,ESE,4.6,-,N/A,,Overcast,120,2012-11-04 01:50:00
9:10 PM,42.1,28.6,59,30.19,10.0,SE,3.5,-,N/A,,Mostly Cloudy,130,2012-11-04 02:10:00
9:30 PM,42.3,28.4,58,30.20,10.0,ESE,3.5,-,N/A,,Mostly Cloudy,120,2012-11-04 02:30:00
9:50 PM,42.1,28.8,59,30.20,10.0,Calm,Calm,-,N/A,,Mostly Cloudy,0,2012-11-04 02:50:00
10:10 PM,42.3,28.4,58,30.20,10.0,SE,3.5,-,N/A,,Overcast,140,2012-11-04 03:10:00
10:30 PM,41.4,29.3,62,30.20,10.0,SSE,3.5,-,N/A,,Overcast,150,2012-11-04 03:30:00
10:50 PM,41.4,29.3,62,30.20,10.0,SE,3.5,-,N/A,,Overcast,140,2012-11-04 03:50:00
11:10 PM,41.2,30.4,65,30.19,10.0,SE,4.6,-,N/A,,Overcast,130,2012-11-04 04:10:00
11:30 PM,41.4,29.8,64,30.20,10.0,SE,3.5,-,N/A,,Overcast,130,2012-11-04 04:30:00
11:50 PM,41.9,29.7,62,30.20,10.0,Calm,Calm,-,N/A,,Overcast,0,2012-11-04 04:50:00